Wind_Speed
10 13 15 12 9 10 9 10 11 11 11 13 15 17 18 18 21 14 16 16 16 17 17 16 15 15 15 15 14 14 13 12 12 11 12 11 10 10 9 9 9 9 6
12 13 15 16 10 9 11 10 10 9 10 11 11 12 13 13 12 16 17 16 17 17 18 16 16 16 15 15 14 14 14 14 12 11 12 12 12 11 10 10 9 9 8
19 16 14 16 12 10 10 11 9 9 10 8 12 10 12 13 13 16 14 16 17 18 20 19 17 15 16 15 15 14 15 15 11 11 11 13 14 14 13 12 11 10 9
15 16 15 14 16 11 10 13 12 9 10 9 9 11 13 13 11 12 15 11 16 20 21 21 18 17 18 16 15 15 16 15 13 11 12 14 15 15 15 14 13 12 10
17 19 17 16 16 15 11 14 15 12 11 11 10 10 9 10 12 11 13 10 16 15 17 19 16 16 19 19 16 16 16 13 14 13 14 14 16 16 16 16 15 13 13
20 20 19 18 17 17 16 15 15 14 11 13 13 10 12 11 11 14 13 9 11 14 17 20 19 17 20 21 18 16 18 12 16 15 13 13 16 17 18 18 17 15 14
19 22 21 19 16 19 20 17 16 15 14 10 9 7 9 9 11 12 14 15 11 14 16 22 15 13 17 21 17 18 20 15 16 16 15 15 16 18 18 16 16 16 15
20 20 23 20 20 19 19 20 19 17 14 11 5 2 2 7 16 14 13 13 13 16 17 20 20 24 28 24 23 21 19 17 17 17 16 14 15 16 16 16 16 18 16
20 21 21 25 21 20 21 21 20 20 16 13 14 6 2 3 1 8 13 15 12 15 17 17 18 21 23 23 19 19 20 18 17 17 16 15 15 16 15 18 18 17 16
19 20 21 24 24 21 23 21 23 23 16 13 14 20 15 4 1 2 3 10 11 14 15 16 17 18 19 19 18 16 19 17 16 16 15 15 15 15 16 17 17 16 16
17 20 22 24 24 24 24 25 22 23 23 24 16 9 16 11 10 5 1 2 9 11 14 15 13 12 13 15 19 17 16 16 15 15 15 15 14 13 14 15 15 15 16
16 18 21 23 24 24 24 24 27 24 25 25 15 15 13 8 3 3 1 4 7 10 16 16 15 14 14 15 17 17 15 15 16 15 14 14 14 14 14 13 12 13 15
14 17 18 21 23 23 20 24 25 26 26 18 14 14 10 15 7 4 4 4 3 6 11 20 19 15 15 13 16 16 15 15 14 14 13 12 12 11 11 11 12 12 13
8 10 14 19 22 22 22 23 19 20 20 16 14 13 9 7 6 5 7 8 3 3 7 2 20 17 13 15 14 16 13 14 12 10 10 11 12 11 10 10 11 12 12
4 5 10 14 18 20 22 21 20 19 18 16 15 13 11 6 3 9 13 12 7 2 2 5 5 10 11 12 12 16 14 13 12 11 9 9 10 9 10 11 11 10 9
5 3 7 9 12 16 18 18 18 19 17 16 17 12 9 9 11 12 7 4 7 2 1 2 2 6 5 10 13 13 12 15 12 11 9 11 10 10 9 9 8 8 8
9 10 6 9 10 12 13 13 14 16 17 16 13 11 9 11 10 4 5 3 4 6 0 3 9 7 7 9 9 11 13 15 13 11 10 11 10 10 8 7 7 6 5
9 10 11 9 11 13 12 11 12 13 13 11 8 7 4 4 7 7 6 3 2 3 4 10 8 9 10 12 13 9 10 11 12 12 10 9 8 8 8 7 6 5 5
8 8 10 12 13 12 13 14 17 17 16 14 11 10 11 12 10 13 7 7 1 2 2 10 9 10 10 14 13 15 12 9 8 9 7 7 7 6 6 6 6 5 5
7 9 12 14 15 13 12 13 13 10 9 8 6 5 6 11 9 6 10 12 8 7 5 3 12 13 11 10 10 11 9 8 8 7 3 2 1 3 3 4 4 4 4
8 10 13 14 13 13 13 14 13 12 11 9 6 4 3 4 5 3 5 10 13 10 6 5 10 10 12 9 10 8 8 13 9 8 2 3 2 3 5 6 4 4 2
10 12 12 12 11 9 10 8 8 10 10 10 9 7 6 5 6 4 7 6 10 4 6 11 7 9 12 9 6 5 4 5 2 3 2 3 7 2 8 8 6 4 9
19 18 19 17 10 9 7 5 5 7 8 8 8 9 8 10 9 11 8 7 12 18 16 17 19 14 14 11 8 6 7 6 6 3 2 1 2 5 4 3 3 10 14
22 21 19 16 13 11 8 7 8 11 14 15 15 13 12 10 10 12 8 12 16 18 17 16 16 14 11 7 8 5 4 3 3 1 3 1 6 4 8 10 10 12 13
23 23 20 18 17 16 14 15 16 16 14 15 14 13 13 14 13 11 12 17 20 19 19 17 15 12 10 9 6 6 8 6 3 4 2 1 3 5 10 12 12 10 7
22 21 19 18 16 18 14 14 11 15 17 16 19 20 17 15 13 12 16 17 18 16 12 13 13 11 11 12 11 10 5 7 5 2 4 3 6 9 4 1 5 7 11
Wind_Direction
245 229 224 205 222 221 221 217 216 220 219 218 216 219 208 221 211 205 207 209 195 195 191 195 200 200 198 200 199 194 190 189 196 202 202 200 200 194 184 180 184 184 187
242 225 224 219 223 235 225 210 206 218 221 231 232 226 209 214 215 219 206 211 211 203 199 202 206 209 206 206 208 200 195 200 199 210 212 212 208 206 200 192 191 192 195
229 239 230 220 213 237 229 217 202 213 216 226 228 218 212 203 213 218 207 212 205 207 204 206 212 213 214 207 210 206 199 202 207 221 218 220 215 213 212 209 208 205 204
247 233 229 221 213 213 223 219 201 205 209 217 217 222 225 216 219 216 210 195 215 204 206 210 215 218 218 213 211 206 202 203 212 227 226 221 224 218 218 220 215 214 212
242 236 230 226 219 213 228 223 211 203 221 235 228 225 237 218 210 218 226 207 208 197 211 211 215 230 231 222 219 216 206 225 217 226 228 229 224 222 222 223 223 219 219
230 231 231 226 221 216 215 223 221 219 219 239 234 235 233 212 217 226 232 217 209 208 205 207 204 223 233 233 217 219 214 214 218 218 227 238 228 223 223 224 224 221 221
232 227 226 230 224 209 213 216 217 219 232 216 231 231 244 239 228 239 234 235 222 213 209 207 209 222 242 244 228 219 214 217 217 214 218 228 227 226 223 228 229 226 224
230 227 225 225 221 218 211 214 211 213 234 224 220 211 258 242 236 233 236 238 234 221 216 215 224 232 217 223 226 217 216 219 213 216 224 224 222 226 222 221 228 230 228
238 229 223 225 219 216 210 213 209 208 215 225 219 224 231 225 200 232 233 234 230 214 216 224 218 207 214 213 218 214 213 212 212 216 217 220 221 222 218 216 219 226 227
240 229 221 224 223 216 211 212 210 211 208 236 234 240 251 220 167 246 205 233 238 222 207 211 211 203 205 204 204 213 208 208 210 212 216 221 223 223 223 224 227 225 227
236 225 221 220 222 218 216 207 207 212 205 219 223 221 248 239 226 250 65 241 225 217 209 206 214 210 206 201 208 218 211 212 213 214 217 218 224 228 226 229 234 233 234
230 223 216 214 215 217 211 209 207 210 211 220 213 237 254 240 231 234 258 211 213 203 208 206 209 201 202 211 228 214 216 222 226 219 217 217 221 228 230 230 235 239 238
210 215 212 213 210 209 203 205 211 214 209 208 216 222 201 227 244 286 299 250 198 199 207 210 212 205 211 210 217 219 217 221 219 219 221 224 229 225 224 221 233 243 239
224 213 212 213 209 206 206 202 202 203 206 205 214 205 219 205 233 252 271 299 309 179 206 112 205 196 202 207 209 215 213 208 203 206 215 222 218 219 218 225 227 229 234
181 201 209 206 210 202 202 202 195 191 192 198 203 205 223 204 281 291 248 267 280 335 271 153 204 186 215 211 204 198 203 195 199 198 211 211 211 216 218 214 215 220 227
72 176 194 193 205 195 193 176 176 189 188 189 199 194 197 192 256 310 288 273 293 293 167 152 100 132 148 173 174 178 185 188 192 200 202 197 204 209 210 212 220 225 230
67 72 112 145 156 166 163 159 152 172 174 173 175 184 201 226 263 275 344 273 286 306 324 130 161 133 156 171 157 153 174 184 186 189 190 190 199 209 216 215 207 200 202
79 80 100 119 125 130 130 138 141 138 139 133 137 127 114 290 249 312 302 334 329 37 110 155 146 167 160 150 167 143 130 163 170 177 186 182 178 176 174 182 195 198 202
100 107 104 112 123 126 129 126 134 128 111 101 88 77 59 51 45 16 22 36 301 282 41 166 164 176 158 151 138 136 144 136 143 142 155 169 181 188 196 199 206 216 226
123 113 114 114 118 123 127 131 139 139 137 114 94 77 39 40 54 26 357 11 9 347 6 207 173 158 144 158 147 147 150 152 132 149 144 127 108 170 183 218 228 234 264
133 136 118 114 119 118 124 127 129 134 139 132 116 122 125 74 55 50 12 337 329 337 317 290 221 198 172 170 177 167 196 162 140 132 166 219 208 172 187 227 222 243 285
115 131 128 117 110 117 127 126 134 131 125 123 123 117 105 108 92 48 42 343 359 317 247 227 162 130 70 87 109 62 99 142 133 204 191 340 207 195 220 220 222 282 324
94 93 96 102 98 122 144 142 133 136 134 134 134 125 102 98 102 98 86 69 78 75 76 103 97 92 78 67 92 79 68 50 89 99 59 313 170 124 37 229 272 331 334
88 83 76 73 85 94 126 126 129 108 101 103 107 104 118 98 86 106 97 85 75 64 60 80 86 84 77 72 76 72 68 37 314 129 101 11 340 326 299 326 308 312 316
90 85 81 76 79 77 108 112 117 109 100 93 90 96 99 90 93 100 87 82 72 70 65 66 65 64 55 45 34 52 39 24 11 79 55 55 302 307 308 296 282 284 312
88 86 77 77 86 80 84 109 105 101 98 92 91 87 81 85 94 100 106 99 87 79 67 49 41 40 33 23 24 29 24 1 0 287 31 4 334 336 308 316 44 333 315
Height
810 813 816 818 821 822 823 824 824 826 829 831 832 834 835 836 838 839 836 845 845 848 851 854 857 858 860 862 863 865 867 868 869 871 873 875 877 878 879 881 882 883 885
809 812 814 816 818 821 823 823 824 825 828 831 831 831 832 835 836 838 840 841 844 847 850 852 855 857 859 861 862 864 864 866 867 870 872 874 876 878 879 880 881 882 883
806 810 811 814 816 818 821 822 822 824 826 829 830 832 834 834 836 837 839 839 841 844 847 851 853 855 857 859 861 862 863 864 865 868 870 872 874 876 878 879 880 881 882
802 806 808 811 813 816 818 820 820 821 823 827 829 831 832 833 835 836 837 840 842 841 844 848 851 853 855 857 858 860 860 861 863 866 869 870 872 873 874 876 878 879 880
798 802 805 807 809 813 815 818 818 819 821 825 828 829 832 833 833 835 835 838 840 840 842 844 847 851 854 855 857 857 858 859 861 863 866 867 868 870 872 874 876 877 879
792 797 800 804 807 810 812 814 815 816 819 823 828 829 831 830 831 832 833 836 838 836 839 841 842 846 849 852 854 856 856 856 858 860 863 865 865 866 868 871 873 874 876
792 792 796 799 803 807 808 810 811 814 819 823 827 828 829 829 829 830 831 833 835 836 836 839 841 843 846 850 853 853 854 854 855 857 858 859 861 863 866 869 872 872 873
788 789 792 795 799 801 804 807 809 812 818 823 824 827 828 827 826 826 828 829 831 833 834 835 837 835 842 844 848 849 850 851 852 853 854 855 858 860 863 865 867 869 871
784 786 788 791 794 797 800 803 806 810 815 820 823 825 827 826 824 824 825 826 827 830 830 831 832 834 837 840 843 845 846 848 849 850 851 853 854 856 860 861 863 866 868
778 781 785 788 790 792 796 800 803 807 811 816 822 823 823 822 823 825 823 822 824 826 827 828 829 830 834 837 840 840 843 844 846 847 848 850 852 854 857 859 861 863 865
774 777 781 783 786 789 791 796 800 804 806 815 819 820 821 820 821 822 822 821 822 822 824 826 829 830 833 836 837 837 839 841 842 844 845 847 848 851 853 856 859 860 862
771 773 777 779 782 784 788 793 797 801 806 812 815 818 820 820 819 820 820 819 820 820 822 823 825 827 829 832 833 834 836 838 839 841 842 844 846 848 851 853 856 858 860
768 771 774 776 779 781 784 789 793 798 803 808 811 815 815 817 818 817 817 818 818 818 818 820 821 824 826 828 830 832 834 835 837 839 840 842 844 846 848 850 852 855 856
769 770 772 774 775 778 781 785 789 797 802 805 808 811 813 813 814 814 815 817 819 817 816 817 819 821 824 825 827 829 831 833 835 837 839 840 842 844 846 848 850 852 853
770 771 772 773 774 776 779 783 789 793 798 801 806 809 811 810 812 813 813 815 817 820 819 819 820 822 824 824 825 827 829 831 834 836 838 839 841 843 844 846 847 849 850
772 772 773 774 774 776 779 784 788 793 797 800 805 808 809 810 812 810 811 813 814 816 820 819 821 820 821 824 825 826 828 830 833 835 836 837 840 842 843 844 846 846 848
774 772 774 775 777 779 783 786 788 793 798 802 805 807 809 810 810 814 811 811 813 814 816 819 820 822 824 826 824 825 827 829 831 833 835 837 838 840 842 844 844 845 846
780 779 778 779 782 784 786 788 792 797 800 803 806 808 810 811 809 811 811 812 813 814 814 817 820 823 824 824 825 826 829 829 830 832 834 836 837 839 841 842 843 844 845
781 782 783 784 785 787 789 792 794 797 800 802 805 807 810 811 812 812 813 813 814 815 816 817 819 820 822 825 826 827 829 831 832 833 834 835 837 839 840 840 841 842 844
784 785 786 787 789 791 793 795 796 798 801 803 806 808 810 813 814 815 816 815 816 816 816 817 818 820 823 825 826 827 830 831 832 834 834 836 838 839 840 840 841 842 842
787 788 789 791 793 795 796 798 800 802 804 806 809 811 813 813 814 816 816 817 815 815 814 817 820 819 822 824 827 829 830 831 834 835 835 836 837 838 839 839 840 841 842
789 791 793 796 798 799 801 802 804 805 806 808 810 812 813 814 816 818 819 819 819 816 817 816 818 820 824 825 827 828 829 830 833 835 835 837 836 838 839 839 839 840 841
792 795 796 798 800 801 804 806 807 808 809 811 812 814 816 817 819 819 818 820 822 820 817 816 819 822 825 827 827 829 830 832 833 835 835 836 837 837 839 839 840 839 838
796 798 801 802 802 804 805 808 809 811 813 814 815 817 818 820 820 820 821 823 823 821 822 823 824 827 829 830 831 831 832 833 834 834 834 836 836 837 837 837 838 838 838
800 802 805 806 806 807 808 809 811 812 815 817 818 820 821 821 823 823 823 826 827 828 829 829 830 832 833 833 833 834 836 833 833 835 835 835 836 836 837 835 835 835 836
804 806 810 810 809 809 811 812 814 817 819 821 822 822 824 825 825 826 827 828 829 831 833 834 833 835 836 836 834 835 837 838 835 833 834 835 835 837 835 834 834 834 832